Regional Weather Roundup
Issued by NWS

Home | Current Version | Previous Version | Text Only | Print | Product List | Glossary Off
Versions: 1 2 3 4 5 6 7 8 9 10 11 12 13 14 15 16 17 18 19 20 21 22 23 24 25 26 27 28 29 30 31 32 33 34 35 36 37 38 39 40 41 42 43 44 45 46 47 48 49 50

000
ASUS43 KBIS 291720
RWRND

NORTH DAKOTA REGIONAL WEATHER ROUNDUP
NATIONAL WEATHER SERVICE BISMARCK ND
1200 PM CDT SUN MAR 29 2015

NOTE: "FAIR" INDICATES FEW OR NO CLOUDS BELOW 12,000 FEET WITH NO
SIGNIFICANT WEATHER AND/OR OBSTRUCTIONS TO VISIBILITY.


NDZ001>003-009>011-017-291800-
NORTHWEST NORTH DAKOTA

CITY           SKY/WX    TMP DP  RH WIND       PRES   REMARKS
WILLISTON      SUNNY     49  38  65 W14       30.07S
MINOT          SUNNY     50  30  46 W17       30.00R
MINOT AFB      SUNNY     48  35  60 NW21      29.99R
$$

NDZ018>021-031>035-040>046-291800-
SOUTHWEST NORTH DAKOTA

CITY           SKY/WX    TMP DP  RH WIND       PRES   REMARKS
BISMARCK       SUNNY     51  30  44 NW20G28   30.06R
DICKINSON      MOSUNNY   48  35  60 W21G29    30.08R
GARRISON         N/A     49  36  61 NW17G25   30.03R
HETTINGER ARPT MOSUNNY   49  33  54 NW20      30.13R
$$

NDZ004>008-012>016-024-026-027-054-291800-
NORTHEAST NORTH DAKOTA

CITY           SKY/WX    TMP DP  RH WIND       PRES   REMARKS
GRAND FORKS    PTSUNNY   47  33  58 NW25G36   29.84R
GRND FRKS AFB  PTSUNNY   48  34  58 N24G32    29.85R
DEVILS LAKE    SUNNY     48  32  53 NW20G28   29.92R
$$

NDZ022-023-025-028>030-036>039-047>053-291800-
SOUTHEAST NORTH DAKOTA

CITY           SKY/WX    TMP DP  RH WIND       PRES   REMARKS
FARGO          PTSUNNY   49  34  56 NW30G41   29.85R
JAMESTOWN      SUNNY     49  33  54 NW26G36   29.93R
$$




USA.gov is the U.S. government's official web portal to all federal, state and local government web resources and services.